Regional Weather Roundup
Issued by NWS Jackson, KY

Home | Current Version | Previous Version | Text Only | Print | Product List | Glossary On
Versions: 1 2 3 4 5 6 7 8 9 10 11 12 13 14 15 16 17 18 19 20 21 22 23 24 25 26 27 28 29 30 31 32 33 34 35 36 37 38 39 40 41 42 43 44 45 46 47 48 49
000
ASUS43 KJKL 021110
RWRJKL

EAST KENTUCKY HOURLY WEATHER ROUNDUP
NATIONAL WEATHER SERVICE JACKSON KY
700 AM EDT WED SEP 02 2015

NOTE: "FAIR" INDICATES FEW OR NO CLOUDS BELOW 12,000 FEET WITH
NO SIGNIFICANT WEATHER AND/OR OBSTRUCTIONS TO VISIBILITY.

* THESE REPORTS ARE NOT UNDER NWS QUALITY CONTROL AND MAY NOT
  REPORT WEATHER SUCH AS PRECIPITATION AND FOG.

KYZ079-080-083-085-087-088-110-112-115-119-120-021200
...EASTERN KENTUCKY...

CITY           SKY/WX    TMP DP  RH WIND       PRES   REMARKS
JACKSON        PTCLDY    68  66  93 CALM      30.15R FOG
LONDON         PTCLDY    66  62  87 CALM      30.15R
SOMERSET*      CLEAR     63  63 100 CALM      30.15S FOG
MONTICELLO*    PTCLDY    63  63 100 CALM      30.17R FOG
WILLIAMSBURG*  CLOUDY    63  63 100 CALM      30.16R
MIDDLESBORO*   FOG       65  65 100 CALM      30.17R VSB 1
HAZARD APT*    FOG       64  64 100 CALM      30.16R VSB 3/4
BLACK MTN*       N/A     64  63  94 CALM        N/A
PIKEVILLE APT* FOG       66  66 100 S3        30.16R VSB 3/4
BIG SANDY*     SUNNY     67  67  99 CALM      30.15R FOG
MOREHEAD APT*  SUNNY     66  64  94 S3        30.16R FOG
$$

KYZ035-036-041-042-044-050-067-078-099-021200
...CENTRAL KENTUCKY...

CITY           SKY/WX    TMP DP  RH WIND       PRES   REMARKS
MT STERLING*   CLEAR     63  63 100 SW3       30.16R FOG
FLEMING/MASON* FOG       64  64 100 CALM      30.15R VSB 1/2
DANVILLE*      CLEAR     63  61  94 CALM      30.16R
RICHMOND*      CLEAR     64  63  94 CALM      30.14R
LEXINGTON      CLEAR     67  64  90 CALM      30.14R
FRANKFORT      CLEAR     66  63  90 CALM      30.12
$$

KYZ091>093-OHZ055-061-077-WVZ005-015-034-035-042-021200
...SOUTHERN OHIO/WEST VIRGINIA...

CITY           SKY/WX    TMP DP  RH WIND       PRES   REMARKS
COVINGTON      CLEAR     65  64  97 S3        30.13R FOG
COLUMBUS       PTCLDY    68  67  96 CALM      30.11R
DAYTON         PTCLDY    69  67  93 SW6       30.13R
WILMINGTON     CLEAR     64  62  93 CALM      30.13R FOG
HUNTINGTON     MOCLDY    65  65 100 CALM      30.12S FOG
CHARLESTON     PTCLDY    65  64  97 CALM      30.13R FOG
PINEVILLE*     FOG       66  66 100 MISG      30.23R VSB 1/4
BECKLEY        PTCLDY    64  61  90 CALM      30.21R FOG
BLUEFIELD      CLEAR     67  61  81 CALM      30.23R
$$

VAZ002-007-008-TNZ017-027-036-066-071-021200
...SOUTHWEST VIRGINIA/EAST TENNESSEE...

CITY           SKY/WX    TMP DP  RH WIND       PRES   REMARKS
WISE*          CLEAR     64  64 100 CALM      30.23S FOG
JONESVILLE*    SUNNY     63  63 100 CALM      30.19R FOG
ABINGDON*      CLEAR     66  64  95 CALM      30.19R
BRISTOL        PTCLDY    64  62  93 CALM      30.17R FOG
KNOXVILLE      PTCLDY    69  69 100 CALM      30.12R
OAK RIDGE      PTCLDY    69  66  90 CALM      30.14R
CROSSVILLE     PTCLDY    65  63  93 CALM      30.18R FOG
NASHVILLE      MOCLDY    70  67  90 CALM      30.12R
$$

...KEY TO REMARKS...
VSB - VISIBILITY IN MILES
WCI - WIND CHILL INDEX
HX  - HEAT INDEX

$$



USA.gov is the U.S. government's official web portal to all federal, state and local government web resources and services.